Airfield :
LOGIN :

Register | Disclaimer

   EN    FR    IT 

 










Legend :    VFR   Marginal VFR   IFR   Intensive IFR   Very Intensive IFR
Visi :
Ceiling :
>= 8 km
>= 3000ft
5 to 8 km
1000 to 3000 ft
1500m to 5 km
500 to 1000 ft
800 to 1500m
200 to 500 ft
< 800m
< 200 ft
Symbols :   Thunderstorms  Fog  Heavy snow  Heavy precipitations  Wind > 20 kt
SIGMETs :     Misc.  Thunderstorms  Icing  Turbulence  Mountain Waves  Volcanic Ashes







- Airport Elevation : 913 ft
- Download approach charts


LFSX - Luxeuil

CURRENT METAR :
  • 191000Z AUTO VRB03KT 9999 FEW037 BKN088 09/03 Q1023

EXPIRED METARs :
  • 190930Z AUTO 12003KT 090V160 9999 BKN027 OVC080 06/03 Q1023
  • 190900Z AUTO VRB03KT 9999 BKN030 OVC072 04/02 Q1023
  • 190830Z AUTO VRB02KT CAVOK 03/01 Q1023
  • 190800Z AUTO VRB01KT CAVOK 02/00 Q1022
  • 190730Z AUTO VRB02KT CAVOK 01/M01 Q1022

TAF TAF LFSX
Valid from the 19 at 09:00 until the 20 at 09:00 UTC


190800Z 1909/2009 12003KT CAVOK
TEMPO 1923/2005 3000 BR
PROB30
TEMPO 2000/2004 0800 FZFG
No reported NOTAMs for that airfield.



MET'MAP, your aeronautical weather chart ! - Copyright ORBIFLY December 2007 - Disclaimer

ORBIFLY MET'MAP TEAM :

Programming & Development : Alexandra Zaïnal
Concept & Development : Baudouin d'Aumeries
Co-Development & Prog : Marc-Olivier Méhu
Technical & hardware support : Manuel Goepfert

Contact : metmap@orbifly.com




SOURCES & CREDITS :

   NOAA